Regional Weather Roundup
Issued by NWS New Orleans/Baton Rouge, LA

Home | Current Version | Previous Version | Text Only | Print | Product List | Glossary On
Versions: 1 2 3 4 5 6 7 8 9 10 11 12 13 14 15 16 17 18 19 20 21 22 23 24 25 26 27 28 29 30 31 32 33 34 35 36 37 38 39 40 41 42 43 44 45 46 47 48 49 50
754
ASUS44 KLIX 231301
RWRLIX
NEW ORLEANS REGIONAL WEATHER ROUNDUP
NATIONAL WEATHER SERVICE NEW ORLEANS LA
800 AM CDT WED APR 23 2014

NOTE: "FAIR" INDICATES FEW OR NO CLOUDS BELOW 12,000 FEET WITH NO
      SIGNIFICANT WEATHER AND/OR OBSTRUCTIONS TO VISIBILITY.
      SKY/WX - SKY CONDITION AND SIGNIFICANT WEATHER.
      TMP - AIR TEMPERATURE.     DP    - DEWPOINT TEMPERATURE.
      RH  - RELATIVE HUMIDITY.   PRES  - PRESSURE.
      HI  - HEAT INDEX.          WCI   - WIND CHILL INDEX.

*  THESE STATIONS ARE NOT NWS OR FAA STATIONS AND ARE NOT UNDER
   NWS QUALITY CONTROL.

LAZ038-040-048-061>063-065>067-069-231400-
SOUTHEAST LOUISIANA

CITY           SKY/WX    TMP DP  RH WIND       PRES   REMARKS
N.O. AUDUBON     N/A     70  64  82 MISG        N/A
N.O. INTL ARPT SUNNY     69  64  84 N10       29.98R
N.O. LAKEFRONT SUNNY     69  63  81 N10       29.98R
N.O. DOWNTOWN*   N/A     70  61  73 N7        29.98S
SLIDELL        SUNNY     64  60  87 N6        29.97S
BATON ROUGE    SUNNY     65  60  84 CALM      29.98S
BOOTHVILLE     SUNNY     67  66  97 NW3       29.98R FOG
BELLE CHASSE   SUNNY     66  63  90 CALM      29.97R FOG
BOGALUSA*        N/A     63  59  88 CALM      30.00R
GALLIANO*      NOT AVBL
NEW ROADS*     NOT AVBL
GONZALES*        N/A     64  63  96 CALM      29.98S
HAMMOND*       NOT AVBL
HOUMA*         SUNNY     64  63  94 CALM      29.99R
PORT FOURCHON* SUNNY     72  68  88 N5        29.99R

$$

MSZ070-080>082-231400-
SOUTHERN MISSISSIPPI

CITY           SKY/WX    TMP DP  RH WIND       PRES   REMARKS
MCCOMB         SUNNY     65  58  78 N6        29.99R
GULFPORT       SUNNY     68  62  81 N3        29.97R
BILOXI         NOT AVBL
PASCAGOULA     CLOUDY    62  62 100 CALM      29.97R FOG
STENNIS ARPT*  SUNNY     55  54  94 CALM      29.98R

$$

COASTAL OBSERVATIONS
LAKE AND NEARSHORE STATIONS

STATION/POSITION TIME  TEMP    WIND        PRES    WAVE
                       AIR SEA DIR/SP/G            HT/PER
                 (UTC) (F)     (DEG/KT/KT) (MB)    (FT/S)
PASCAGOULA       1200   65      CALM  /  2 1014.0
WAVELAND YACHT   1200   65 71  350/  5/  7 1014.2
GRAND ISLE       1200   71 71  360/  4/  6 1015.2
SOUTHWEST PASS   1200   66 59  360/  5/  6 1014.9
NEW CANAL        1200   69 69   20/  8/  9 1015.4
SHELL BEACH      1200   68 67  340/  9/  9 1014.6

OFFSHORE STATIONS

STATION/POSITION TIME  TEMP    WIND        PRES    WAVE
                       AIR SEA DIR/SP/G            HT/PER
                 (UTC) (F)     (DEG/KT/KT) (MB)    (FT/S)
64 S DAUPHIN ISL 1249   68 68  330/  6/  8 1014.7

$$




USA.gov is the U.S. government's official web portal to all federal, state and local government web resources and services.